Torna al catalogo

FALCON-9 R/B

AttivoHEO
NORAD 60087·ROCKET BODY·🇺🇸 United States

Lanciato Jun 20, 2024 da Cape Canaveral Space Force Station

Loading…

Prossimi Passaggi (prossime 24 ore)

TLE

AggiornatoSource: Space-Track

Epoca: Sep 13, 2026, 22:43 UTC

1 60087U 24115B   26256.94662189  .00000337  00000-0  67278-2 0  9995
2 60087  26.4998 254.3990 7929478  95.2941 348.8703  1.44182934 11730

Traccia FALCON-9 R/B in tempo reale con AllMySat

Download on the App Store